MMS 2 (40483 NORAD) Tracking and Keplerian Element Data

This shows tracking and keplerian element data for the satellite.

Feedback or suggestion? Click here.




ElementValue
Catalog40483
NameMMS 2
Epoch Orbit947
Epoch Day320.04650463
Epoch Year2018
RAAN11.6348
Inclination1.6955
Eccentricity0.9065098
Argument of Perigee112.9823
Mean Anonmoly64.2185
Mean Motion0.35522479
Decay Rate1.6E-07
L11 40483U 15011B 18320.04650463 .00000016 00000-0 00000+0 0 9995
L22 40483 1.6955 11.6348 9065098 112.9823 64.2185 0.35522479 9476

Live tracking and technical data element details for MMS 2 (NORAD 40483). MMS 2 can be tracked NOW for your location showing map with azimuth and elevation plus other details from your city location.

Track the satellite on the map from your city or location and see movement details for azimuth, elevation, latitude, longitude, range, height, and movement on the map or in text.







IsCatalogInMostPopularTable: catalog: 40483, numindb: 91
Update: records affected: 1



GetName: 40483 MMS 2

Hit Count: updated at: Wed, 21 Nov 2018 05:49:00 GMT